Regional Weather Roundup
Issued by NWS Green Bay, WI

Home | Current Version | Previous Version | Text Only | Print | Product List | Glossary On
Versions: 1 2 3 4 5 6 7 8 9 10 11 12 13 14 15 16 17 18 19 20 21 22 23 24 25 26 27 28 29 30 31 32 33 34 35 36 37 38 39 40 41 42 43 44 45 46 47 48 49 50
000
ASUS43 KGRB 240200
RWRGRB

NORTH-CENTRAL AND NORTHEAST WISCONSIN REGIONAL WEATHER ROUNDUP
NATIONAL WEATHER SERVICE GREEN BAY WI
900 PM CDT MON MAY 23 2016

WIZ005-009-010>012-018-019-240300-
NORTH CENTRAL WISCONSIN

CITY           SKY/WX    TMP DP  RH WIND       PRES   REMARKS
IRONWOOD       CLOUDY    64  63  94 CALM      29.80R
MANITOWISH WTR NOT AVBL
ARBOR VITAE    NOT AVBL
EAGLE RIVER    NOT AVBL
LAND O LAKES   NOT AVBL
RHINELANDER    CLOUDY    75  45  34 SW8       29.84R
PHILLIPS       NOT AVBL
ANTIGO         NOT AVBL
TOMAHAWK       NOT AVBL
MERRILL        MOCLDY    75  46  35 S6        29.83S
$$

WIZ013-073-240300-
NORTHEAST WISCONSIN

CITY           SKY/WX    TMP DP  RH WIND       PRES   REMARKS
IRON MOUNTAIN  CLOUDY    70  49  47 SE7       29.83R
MARINETTE      CLEAR     66  43  42 S7        29.86R
$$

WIZ017-030-035>037-045-240300-
CENTRAL WISCONSIN

CITY           SKY/WX    TMP DP  RH WIND       PRES   REMARKS
MEDFORD        NOT AVBL
WAUSAU         PTCLDY    75  47  36 S8        29.81S
MOSINEE        CLEAR     70  46  43 S7        29.84S
MARSHFIELD     CLOUDY    71  45  39 S8        29.81S
WISC RAPIDS    PTCLDY    74  43  32 S6        29.83S
STEVENS POINT  NOT AVBL
WAUPACA        NOT AVBL
SHAWANO        NOT AVBL
CLINTONVILLE   NOT AVBL
WAUTOMA        MOCLDY    71  50  47 SE5       29.84S
$$

WIZ038-039-048-051-240300-
FOX VALLEY

CITY           SKY/WX    TMP DP  RH WIND       PRES   REMARKS
NWS GREEN BAY  CLEAR     70  43  37 S8        29.85S
APPLETON       PTCLDY    70  46  43 S8        29.84S
OSHKOSH        CLOUDY    68  48  48 S7        29.85S
FOND DU LAC    PTCLDY    66  50  56 SE8       29.86S
$$

WIZ022-050-052-240300-
EAST CENTRAL WISCONSIN

CITY           SKY/WX    TMP DP  RH WIND       PRES   REMARKS
EPHRAIM        NOT AVBL
STURGEON BAY   NOT AVBL
MANITOWOC      NOT AVBL
SHEBOYGAN      PTCLDY    61  39  44 S7        29.89F
$$

LMZ563-521-522-541>543-240300-
LAKESHORE

STATION/POSITION TIME  TEMP    WIND        PRES    VSBY  WAVE
                       AIR SEA DIR/SP/G                  HT/PER
                 (UTC) (F)     (DEG/KT/KT) (MB)    (MI)  (FT/S)
SHEBOYGAN LKSHOR 0100   58     180/ 16/ 17 1012.7F
KEWAUNEE LKSHORE 0100   54                   N/A
ALGOMA MARINA    0146          220/ 12/ 14   N/A
NORTHPORT PIER   0100   62     160/  7/ 16 1011.2F
N MID LAKE BUOY  0050   52 45  200/ 16/ 16 1011.5          3/ 4
SISTER BAY LKSHO 0149   66     180/ 19/ 25   N/A
CHAMBERS ISLAND  0100   65     150/  8/ 13 1010.8S
MENOMINEE LKSHOR 0100   63                   N/A
$$



USA.gov is the U.S. government's official web portal to all federal, state and local government web resources and services.